Location: Blangy-Tronville
(49.8790°N, 2.4226°E)
Time: 07:46:29
(UTC+00:00)

CORIOLIS - Pass Details

Date: 18 November 2025
Orbit: 815 x 836 km, 98.7° (Epoch: 13 December)

Event Time Altitude Azimuth Distance (km) Brightness Sun altitude
Rises 17:12:50 0° 169° (S) 3,347 7.4 -11.2°
Reaches altitude 10° 17:15:11 10° 171° (S) 2,416 6.7 -11.5°
Maximum altitude 17:20:31 73° 256° (WSW) 860 4.4 -12.4°
Drops below altitude 10° 17:25:53 10° 342° (NNW) 2,422 6.6 -13.2°
Sets 17:28:15 0° 344° (NNW) 3,357 7.3 -13.6°
